Mount Holly, NJ

8:20 AM EST on December 06, 2019 (GMT -0500)
South Jersey Regional

Weather History for KVAY - October, 2019

Change the Weather History Date:

Wednesday, October 9, 2019

  Actual Average (WUND) Record (WUND)
Temperature  
Mean Temperature 55 °F -  
Max Temperature 57 °F - - (-1)
Min Temperature 53 °F - - (-1)
Degree Days  
Heating Degree Days 10    
Growing Degree Days 5 (Base 50)    
Moisture  
Dew Point 50 °F    
Average Humidity 86    
Maximum Humidity 94    
Minimum Humidity 65    
Precipitation  
Precipitation 0.57 in - - ()
Sea Level Pressure  
Sea Level Pressure 30.23 in    
Wind  
Wind Speed 8 mph (NNE)    
Max Wind Speed 14 mph    
Max Gust Speed 23 mph    
Visibility 6 miles    
Events Rain    
Averages and records for this station are not official NWS values.
T = Trace of Precipitation, MM = Missing Value Source: NWS Daily Summary

Daily Weather History Graph

Daily Weather History Graph

Search for Another Location

Airport or City:

Astronomy

Oct. 09, 2019 Rise Set
Actual Time 7:03 AM EDT 6:29 PM EDT
Civil Twilight 6:36 AM EDT 6:56 PM EDT
Nautical Twilight 6:04 AM EDT 7:27 PM EDT
Astronomical Twilight 5:33 AM EDT 7:59 PM EDT
Moon 4:59 PM EDT (10/9) 2:47 AM EDT (10/9)
Length of Visible Light 12h 20m
Length of Day
11h 25m
Waxing Gibbous, 85% of the Moon is Illuminated
Oct 9
Waxing Gibbous
Oct 13
Full
Oct 21
Last Quarter
Oct 27
New
Nov 4
First Quarter

Hourly Weather History & Observations

Time (EDT) Temp. Dew Point Humidity Pressure Visibility Wind Dir Wind Speed Gust Speed Precip Events Conditions
12:54 AM 54.0 °F 48.0 °F 80% 30.19 in 10.0 mi North 4.6 mph - N/A   Mostly Cloudy
1:54 AM 57.0 °F 48.9 °F 74% 30.19 in 10.0 mi North 4.6 mph - N/A   Overcast
2:54 AM 57.9 °F 48.9 °F 72% 30.18 in 10.0 mi North 6.9 mph - N/A   Overcast
3:54 AM 57.9 °F 48.0 °F 70% 30.17 in 10.0 mi NNE 10.4 mph - N/A   Clear
4:54 AM 57.9 °F 46.9 °F 67% 30.17 in 10.0 mi NNE 6.9 mph - N/A   Mostly Cloudy
5:54 AM 57.9 °F 46.0 °F 65% 30.18 in 10.0 mi NNE 6.9 mph - N/A   Partly Cloudy
6:54 AM 57.0 °F 46.9 °F 69% 30.20 in 10.0 mi NNE 5.8 mph - N/A   Mostly Cloudy
7:54 AM 57.9 °F 46.9 °F 67% 30.22 in 10.0 mi North 6.9 mph - N/A   Overcast
8:54 AM 57.0 °F 50.0 °F 77% 30.23 in 10.0 mi NNE 6.9 mph - 0.01 in Rain Light Rain
9:31 AM 57.0 °F 50.0 °F 77% 30.24 in 10.0 mi North 8.1 mph - 0.00 in   Overcast
9:54 AM 57.0 °F 50.0 °F 77% 30.25 in 10.0 mi North 8.1 mph - 0.00 in Rain Light Rain
10:22 AM 55.9 °F 51.1 °F 84% 30.26 in 1.8 mi NNE 6.9 mph - 0.02 in Rain Light Rain
10:49 AM 55.4 °F 53.6 °F 94% 30.26 in 1.8 mi NE 6.9 mph - 0.05 in Rain Light Rain
10:54 AM 55.0 °F 52.0 °F 89% 30.26 in 1.8 mi NNE 8.1 mph - 0.05 in Rain Light Rain
11:00 AM 55.0 °F 53.1 °F 93% 30.26 in 2.0 mi NE 9.2 mph - 0.00 in Rain Light Rain
11:15 AM 55.9 °F 53.1 °F 90% 30.26 in 3.0 mi NNE 10.4 mph - 0.01 in Rain Light Rain
11:54 AM 55.9 °F 52.0 °F 87% 30.26 in 6.0 mi NNE 11.5 mph - 0.01 in   Overcast
12:05 PM 55.0 °F 52.0 °F 89% 30.26 in 2.0 mi NNE 12.7 mph - 0.02 in Rain Light Rain
12:20 PM 54.0 °F 51.1 °F 90% 30.26 in 1.8 mi NNE 13.8 mph 23.0 mph 0.04 in Rain Rain
12:45 PM 54.0 °F 51.1 °F 90% 30.26 in 2.5 mi NNE 10.4 mph 20.7 mph 0.07 in Rain Light Rain
12:48 PM 53.6 °F 51.8 °F 94% 30.26 in 4.0 mi NE 9.2 mph 20.7 mph 0.07 in Rain Light Rain
12:54 PM 54.0 °F 52.0 °F 93% 30.26 in 4.0 mi NNE 11.5 mph 16.1 mph 0.08 in Rain Light Rain
12:59 PM 54.0 °F 52.0 °F 93% 30.26 in 3.0 mi NNE 12.7 mph 19.6 mph 0.01 in Rain Rain
1:06 PM 54.0 °F 51.1 °F 90% 30.25 in 2.0 mi NNE 11.5 mph 19.6 mph 0.03 in Rain Rain
1:14 PM 54.0 °F 51.1 °F 90% 30.25 in 1.8 mi NNE 10.4 mph 21.9 mph 0.06 in Rain Rain
1:33 PM 54.0 °F 51.1 °F 90% 30.25 in 2.0 mi NNE 11.5 mph - 0.12 in Rain Heavy Rain
1:51 PM 53.6 °F 51.8 °F 94% 30.24 in 3.0 mi NNE 11.5 mph - 0.17 in Rain Rain
1:54 PM 54.0 °F 51.1 °F 90% 30.24 in 3.0 mi NNE 9.2 mph - 0.17 in Rain Rain
2:54 PM 54.0 °F 52.0 °F 93% 30.24 in 3.0 mi North 6.9 mph - 0.07 in Rain Light Rain
3:25 PM 54.0 °F 51.1 °F 90% 30.24 in 2.5 mi North 11.5 mph - 0.02 in Rain Light Rain
3:39 PM 54.0 °F 51.1 °F 90% 30.23 in 3.0 mi North 11.5 mph - 0.04 in Rain Light Rain
3:54 PM 54.0 °F 51.1 °F 90% 30.23 in 3.0 mi North 9.2 mph - 0.04 in Rain Light Rain
4:01 PM 54.0 °F 52.0 °F 93% 30.23 in 2.5 mi North 10.4 mph - 0.01 in Rain Light Rain
4:54 PM 54.0 °F 52.0 °F 93% 30.22 in 2.5 mi NNE 8.1 mph 18.4 mph 0.05 in Rain Light Rain
5:00 PM 54.0 °F 51.1 °F 90% 30.22 in 4.0 mi North 9.2 mph - 0.01 in Rain Light Rain
5:07 PM 54.0 °F 51.1 °F 90% 30.22 in 6.0 mi North 10.4 mph - 0.01 in Rain Light Rain
5:14 PM 54.0 °F 51.1 °F 90% 30.22 in 7.0 mi North 9.2 mph - 0.01 in Rain Light Rain
5:54 PM 53.1 °F 51.1 °F 93% 30.22 in 5.0 mi NNE 9.2 mph - 0.02 in Rain Light Rain
6:23 PM 53.1 °F 50.0 °F 89% 30.23 in 2.0 mi NNE 8.1 mph - 0.03 in Rain Light Rain
6:29 PM 53.1 °F 50.0 °F 89% 30.23 in 3.0 mi NNE 8.1 mph - 0.03 in Rain Light Rain
6:47 PM 53.1 °F 50.0 °F 89% 30.23 in 6.0 mi NNE 8.1 mph - 0.04 in Rain Light Rain
6:54 PM 53.1 °F 50.0 °F 89% 30.23 in 6.0 mi NNE 8.1 mph - 0.05 in Rain Light Rain
7:54 PM 53.1 °F 50.0 °F 89% 30.24 in 7.0 mi NNE 6.9 mph - 0.01 in Rain Light Rain
8:54 PM 53.1 °F 50.0 °F 89% 30.24 in 10.0 mi North 6.9 mph - 0.00 in   Overcast
9:54 PM 53.1 °F 48.9 °F 86% 30.24 in 10.0 mi NNE 8.1 mph - 0.01 in Rain Light Rain
10:54 PM 53.1 °F 48.0 °F 83% 30.25 in 10.0 mi North 6.9 mph - 0.00 in   Overcast
11:54 PM 53.1 °F 48.0 °F 83% 30.24 in 10.0 mi North 8.1 mph - N/A   Overcast